datetime,delta storage
2000-09-01,-148.0
2000-09-02,-150.0
2000-09-03,-143.0
2000-09-04,-149.0
2000-09-05,-148.0
2000-09-06,-120.0
2000-09-07,-109.0
2000-09-08,-115.0
2000-09-09,-115.0
2000-09-10,-131.0
2000-09-11,-133.0
2000-09-12,-137.0
2000-09-13,-138.0
2000-09-14,-145.0
2000-09-15,-128.0
2000-09-16,-130.0
2000-09-17,-131.0
2000-09-18,-122.0
2000-09-19,-112.0
2000-09-20,-112.0
2000-09-21,-103.0
2000-09-22,-89.0
2000-09-23,-57.0
2000-09-24,-69.0
2000-09-25,-85.0
2000-09-26,-90.0
2000-09-27,-89.0
2000-09-28,-89.0
2000-09-29,-90.0
2000-09-30,-91.0
2000-10-01,-18.0
2000-10-02,2.0
2000-10-03,3.0
2000-10-04,8.0
2000-10-05,24.0
2000-10-06,24.0
2000-10-07,20.0
2000-10-08,17.0
2000-10-09,28.0
2000-10-10,25.0
2000-10-11,50.0
2000-10-12,78.0
2000-10-13,60.0
2000-10-14,45.0
2000-10-15,45.0
2000-10-16,41.0
2000-10-17,41.0
2000-10-18,36.0
2000-10-19,44.0
2000-10-20,46.0
2000-10-21,48.0
2000-10-22,49.0
2000-10-23,59.0
2000-10-24,96.0
2000-10-25,78.0
2000-10-26,65.0
2000-10-27,57.0
2000-10-28,77.0
2000-10-29,91.0
2000-10-30,71.0
2000-10-31,66.0
2000-11-01,54.0
2000-11-02,54.0
2000-11-03,51.0
2000-11-04,50.0
2000-11-05,62.0
2000-11-06,42.0
2000-11-07,35.0
2000-11-08,35.0
2000-11-09,41.0
2000-11-10,93.0
2000-11-11,-3.0
2000-11-12,31.0
2000-11-13,-15.0
2000-11-14,-54.0
2000-11-15,-42.0
2000-11-16,-51.0
2000-11-17,-52.0
2000-11-18,-55.0
2000-11-19,-57.0
2000-11-20,-50.0
2000-11-21,-12.0
2000-11-22,-5.0
2000-11-23,42.0
2000-11-24,25.0
2000-11-25,22.0
2000-11-26,18.0
2000-11-27,27.0
2000-11-28,20.0
2000-11-29,17.0
2000-11-30,20.0
2000-12-01,15.0
2000-12-02,20.0
2000-12-03,18.0
2000-12-04,15.0
2000-12-05,18.0
2000-12-06,15.0
2000-12-07,15.0
2000-12-08,17.0
2000-12-09,18.0
2000-12-10,15.0
2000-12-11,28.0
2000-12-12,13.0
2000-12-13,17.0
2000-12-14,13.0
2000-12-15,13.0
2000-12-16,15.0
2000-12-17,8.0
2000-12-18,12.0
2000-12-19,8.0
2000-12-20,10.0
2000-12-21,11.0
2000-12-22,10.0
2000-12-23,10.0
2000-12-24,8.0
2000-12-25,12.0
2000-12-26,13.0
2000-12-27,5.0
2000-12-28,10.0
2000-12-29,6.0
2000-12-30,7.0
2000-12-31,8.0
2001-01-01,15.0
2001-01-02,3.0
2001-01-03,8.0
2001-01-04,5.0
2001-01-05,5.0
2001-01-06,5.0
2001-01-07,5.0
2001-01-08,3.0
2001-01-09,10.0
2001-01-10,3.0
2001-01-11,2.0
2001-01-12,18.0
2001-01-13,3.0
2001-01-14,5.0
2001-01-15,10.0
2001-01-16,8.0
2001-01-17,5.0
2001-01-18,3.0
2001-01-19,2.0
2001-01-20,0.0
2001-01-21,3.0
2001-01-22,2.0
2001-01-23,3.0
2001-01-24,13.0
2001-01-25,5.0
2001-01-26,11.0
2001-01-27,26.0
2001-01-28,2.0
2001-01-29,3.0
2001-01-30,2.0
2001-01-31,3.0
2001-02-01,0.0
2001-02-02,0.0
2001-02-03,2.0
2001-02-04,3.0
2001-02-05,0.0
2001-02-06,3.0
2001-02-07,10.0
2001-02-08,8.0
2001-02-09,3.0
2001-02-10,0.0
2001-02-11,2.0
2001-02-12,0.0
2001-02-13,11.0
2001-02-14,0.0
2001-02-15,-60.0
2001-02-16,-11.0
2001-02-17,3.0
2001-02-18,5.0
2001-02-19,3.0
2001-02-20,0.0
2001-02-21,2.0
2001-02-22,3.0
2001-02-23,10.0
2001-02-24,0.0
2001-02-25,3.0
2001-02-26,16.0
2001-02-27,5.0
2001-02-28,8.0
2001-03-01,0.0
2001-03-02,0.0
2001-03-03,0.0
2001-03-04,2.0
2001-03-05,3.0
2001-03-06,5.0
2001-03-07,18.0
2001-03-08,3.0
2001-03-09,13.0
2001-03-10,18.0
2001-03-11,5.0
2001-03-12,0.0
2001-03-13,6.0
2001-03-14,2.0
2001-03-15,3.0
2001-03-16,16.0
2001-03-17,7.0
2001-03-18,0.0
2001-03-19,8.0
2001-03-20,11.0
2001-03-21,18.0
2001-03-22,29.0
2001-03-23,27.0
2001-03-24,31.0
2001-03-25,40.0
2001-03-26,43.0
2001-03-27,53.0
2001-03-28,59.0
2001-03-29,40.0
2001-03-30,43.0
2001-03-31,57.0
2001-04-01,65.0
2001-04-02,77.0
2001-04-03,88.0
2001-04-04,99.0
2001-04-05,122.0
2001-04-06,84.0
2001-04-07,87.0
2001-04-08,59.0
2001-04-09,71.0
2001-04-10,60.0
2001-04-11,57.0
2001-04-12,54.0
2001-04-13,52.0
2001-04-14,54.0
2001-04-15,67.0
2001-04-16,95.0
2001-04-17,152.0
2001-04-18,227.0
2001-04-19,269.0
2001-04-20,297.0
2001-04-21,195.0
2001-04-22,169.0
2001-04-23,159.0
2001-04-24,170.0
2001-04-25,218.0
2001-04-26,291.0
2001-04-27,338.0
2001-04-28,397.0
2001-04-29,430.0
2001-04-30,559.0
2001-05-01,719.0
2001-05-02,747.0
2001-05-03,608.0
2001-05-04,425.0
2001-05-05,371.0
2001-05-06,331.0
2001-05-07,335.0
2001-05-08,435.0
2001-05-09,459.0
2001-05-10,527.0
2001-05-11,656.0
2001-05-12,831.0
2001-05-13,999.0
2001-05-14,1126.0
2001-05-15,1245.0
2001-05-16,1155.0
2001-05-17,1026.0
2001-05-18,944.0
2001-05-19,726.0
2001-05-20,789.0
2001-05-21,688.0
2001-05-22,699.0
2001-05-23,830.0
2001-05-24,953.0
2001-05-25,900.0
2001-05-26,923.0
2001-05-27,971.0
2001-05-28,935.0
2001-05-29,530.0
2001-05-30,644.0
2001-05-31,742.0
2001-06-01,401.0
2001-06-02,161.0
2001-06-03,81.0
2001-06-04,56.0
2001-06-05,137.0
2001-06-06,-75.0
2001-06-07,-81.0
2001-06-08,-31.0
2001-06-09,112.0
2001-06-10,-56.0
2001-06-11,25.0
2001-06-12,-62.0
2001-06-13,-31.0
2001-06-14,-50.0
2001-06-15,-62.0
2001-06-16,-74.0
2001-06-17,-81.0
2001-06-18,-92.0
2001-06-19,-117.0
2001-06-20,-111.0
2001-06-21,-130.0
2001-06-22,-141.0
2001-06-23,-166.0
2001-06-24,-226.0
2001-06-25,-250.0
2001-06-26,-244.0
2001-06-27,-248.0
2001-06-28,-290.0
2001-06-29,-283.0
2001-06-30,-251.0
2001-07-01,-221.0
2001-07-02,-220.0
2001-07-03,-261.0
2001-07-04,-271.0
2001-07-05,-271.0
2001-07-06,-299.0
2001-07-07,-292.0
2001-07-08,-279.0
2001-07-09,-330.0
2001-07-10,-306.0
2001-07-11,-356.0
2001-07-12,-360.0
2001-07-13,-381.0
2001-07-14,-306.0
2001-07-15,-356.0
2001-07-16,-354.0
2001-07-17,-336.0
2001-07-18,-328.0
2001-07-19,-338.0
2001-07-20,-337.0
2001-07-21,-352.0
2001-07-22,-339.0
2001-07-23,-342.0
2001-07-24,-358.0
2001-07-25,-344.0
2001-07-26,-347.0
2001-07-27,-352.0
2001-07-28,-354.0
2001-07-29,-357.0
2001-07-30,-308.0
2001-07-31,-249.0
2001-08-01,-289.0
2001-08-02,-272.0
2001-08-03,-219.0
2001-08-04,-173.0
2001-08-05,-162.0
2001-08-06,-161.0
2001-08-07,-131.0
2001-08-08,-75.0
2001-08-09,-100.0
2001-08-10,-25.0
2001-08-11,-65.0
2001-08-12,15.0
2001-08-13,230.0
2001-08-14,439.0
2001-08-15,208.0
2001-08-16,102.0
2001-08-17,25.0
2001-08-18,-10.0
2001-08-19,-11.0
2001-08-20,-40.0
2001-08-21,-51.0
2001-08-22,-61.0
2001-08-23,-86.0
2001-08-24,-107.0
2001-08-25,-146.0
2001-08-26,-156.0
2001-08-27,-171.0
2001-08-28,-194.0
2001-08-29,-224.0
2001-08-30,-247.0
2001-08-31,-240.0
2001-09-01,-254.0
2001-09-02,-266.0
2001-09-03,-265.0
2001-09-04,-268.0
2001-09-05,-275.0
2001-09-06,-281.0
2001-09-07,-276.0
2001-09-08,-291.0
2001-09-09,-279.0
2001-09-10,-281.0
2001-09-11,-279.0
2001-09-12,-281.0
2001-09-13,-238.0
2001-09-14,-254.0
2001-09-15,-274.0
2001-09-16,-271.0
2001-09-17,-273.0
2001-09-18,-275.0
2001-09-19,-256.0
2001-09-20,-249.0
2001-09-21,-243.0
2001-09-22,-241.0
2001-09-23,-239.0
2001-09-24,-245.0
2001-09-25,-242.0
2001-09-26,-241.0
2001-09-27,-238.0
2001-09-28,-267.0
2001-09-29,-269.0
2001-09-30,-270.0
2001-10-01,-275.0
2001-10-02,-265.0
2001-10-03,-273.0
2001-10-04,-259.0
2001-10-05,-270.0
2001-10-06,-270.0
2001-10-07,-264.0
2001-10-08,-222.0
2001-10-09,-264.0
2001-10-10,-263.0
2001-10-11,-199.0
2001-10-12,-40.0
2001-10-13,10.0
2001-10-14,6.0
2001-10-15,4.0
2001-10-16,6.0
2001-10-17,7.0
2001-10-18,0.0
2001-10-19,3.0
2001-10-20,4.0
2001-10-21,6.0
2001-10-22,3.0
2001-10-23,4.0
2001-10-24,3.0
2001-10-25,0.0
2001-10-26,3.0
2001-10-27,4.0
2001-10-28,6.0
2001-10-29,0.0
2001-10-30,7.0
2001-10-31,10.0
2001-11-01,3.0
2001-11-02,3.0
2001-11-03,4.0
2001-11-04,3.0
2001-11-05,3.0
2001-11-06,4.0
2001-11-07,3.0
2001-11-08,3.0
2001-11-09,0.0
2001-11-10,4.0
2001-11-11,-57.0
2001-11-12,-98.0
2001-11-13,-98.0
2001-11-14,-82.0
2001-11-15,-77.0
2001-11-16,-81.0
2001-11-17,-76.0
2001-11-18,-80.0
2001-11-19,-82.0
2001-11-20,-41.0
2001-11-21,0.0
2001-11-22,9.0
2001-11-23,-3.0
2001-11-24,10.0
2001-11-25,15.0
2001-11-26,-3.0
2001-11-27,-3.0
2001-11-28,-3.0
2001-11-29,6.0
2001-11-30,0.0
2001-12-01,-1.96
2001-12-02,0.0
2001-12-03,0.0
2001-12-04,3.25
2001-12-05,-6.35
2001-12-06,-6.34
2001-12-07,-6.35
2001-12-08,-3.1
2001-12-09,0.0
2001-12-10,0.0
2001-12-11,0.0
2001-12-12,-3.25
2001-12-13,-6.34
2001-12-14,3.25
2001-12-15,0.0
2001-12-16,0.0
2001-12-17,-3.25
2001-12-18,-3.1
2001-12-19,-3.25
2001-12-20,-3.09
2001-12-21,-3.25
2001-12-22,-6.35
2001-12-23,-3.1
2001-12-24,-3.25
2001-12-25,-3.09
2001-12-26,-6.35
2001-12-27,-3.25
2001-12-28,-3.1
2001-12-29,0.0
2001-12-30,0.0
2001-12-31,-6.34
2002-01-01,-0.04
2002-01-02,-7.0
2002-01-03,-6.0
2002-01-04,-6.0
2002-01-05,-6.0
2002-01-06,-4.0
2002-01-07,-6.0
2002-01-08,-3.0
2002-01-09,-6.0
2002-01-10,-6.0
2002-01-11,-7.0
2002-01-12,-6.0
2002-01-13,-6.0
2002-01-14,-6.0
2002-01-15,-7.0
2002-01-16,-3.0
2002-01-17,-3.0
2002-01-18,-3.0
2002-01-19,-3.0
2002-01-20,-3.0
2002-01-21,-3.0
2002-01-22,-3.0
2002-01-23,-4.0
2002-01-24,-3.0
2002-01-25,-3.0
2002-01-26,0.0
2002-01-27,0.0
2002-01-28,0.0
2002-01-29,6.0
2002-01-30,0.0
2002-01-31,0.0
2002-02-01,-3.0
2002-02-02,0.0
2002-02-03,0.0
2002-02-04,-3.0
2002-02-05,3.0
2002-02-06,-3.0
2002-02-07,-3.0
2002-02-08,0.0
2002-02-09,0.0
2002-02-10,-3.0
2002-02-11,0.0
2002-02-12,0.0
2002-02-13,0.0
2002-02-14,-3.0
2002-02-15,0.0
2002-02-16,0.0
2002-02-17,0.0
2002-02-18,-3.0
2002-02-19,-3.0
2002-02-20,0.0
2002-02-21,-3.0
2002-02-22,-3.0
2002-02-23,-4.0
2002-02-24,-3.0
2002-02-25,-3.0
2002-02-26,-3.0
2002-02-27,0.0
2002-02-28,-3.0
2002-03-01,-6.0
2002-03-02,-3.0
2002-03-03,-4.0
2002-03-04,0.0
2002-03-05,-3.0
2002-03-06,0.0
2002-03-07,13.0
2002-03-08,0.0
2002-03-09,6.0
2002-03-10,0.0
2002-03-11,-3.0
2002-03-12,3.0
2002-03-13,3.0
2002-03-14,-3.0
2002-03-15,0.0
2002-03-16,0.0
2002-03-17,6.0
2002-03-18,0.0
2002-03-19,0.0
2002-03-20,3.0
2002-03-21,7.0
2002-03-22,6.0
2002-03-23,6.0
2002-03-24,6.0
2002-03-25,3.0
2002-03-26,7.0
2002-03-27,3.0
2002-03-28,6.0
2002-03-29,9.0
2002-03-30,10.0
2002-03-31,15.0
2002-04-01,31.0
2002-04-02,47.0
2002-04-03,66.0
2002-04-04,95.0
2002-04-05,109.0
2002-04-06,115.0
2002-04-07,100.0
2002-04-08,82.0
2002-04-09,85.0
2002-04-10,79.0
2002-04-11,76.0
2002-04-12,80.0
2002-04-13,70.0
2002-04-14,132.0
2002-04-15,152.0
2002-04-16,110.0
2002-04-17,82.0
2002-04-18,77.0
2002-04-19,86.0
2002-04-20,77.0
2002-04-21,70.0
2002-04-22,101.0
2002-04-23,138.0
2002-04-24,196.0
2002-04-25,165.0
2002-04-26,130.0
2002-04-27,102.0
2002-04-28,102.0
2002-04-29,114.0
2002-04-30,162.0
2002-05-01,145.0
2002-05-02,-93.0
2002-05-03,-93.0
2002-05-04,-125.0
2002-05-05,-114.0
2002-05-06,-131.0
2002-05-07,-199.0
2002-05-08,-272.0
2002-05-09,-269.0
2002-05-10,-286.0
2002-05-11,-316.0
2002-05-12,-330.0
2002-05-13,-316.0
2002-05-14,-323.0
2002-05-15,-328.0
2002-05-16,-333.0
2002-05-17,-305.0
2002-05-18,-293.0
2002-05-19,-283.0
2002-05-20,-264.0
2002-05-21,-277.0
2002-05-22,-287.0
2002-05-23,-295.0
2002-05-24,-303.0
2002-05-25,-299.0
2002-05-26,-297.0
2002-05-27,-303.0
2002-05-28,-306.0
2002-05-29,-302.0
2002-05-30,-301.0
2002-05-31,-294.0
2002-06-01,-302.0
2002-06-02,-302.0
2002-06-03,-287.0
2002-06-04,-269.0
2002-06-05,-265.0
2002-06-06,-264.0
2002-06-07,-270.0
2002-06-08,-268.0
2002-06-09,-275.0
2002-06-10,-254.0
2002-06-11,-198.0
2002-06-12,-283.0
2002-06-13,-265.0
2002-06-14,-247.0
2002-06-15,-117.0
2002-06-16,-26.0
2002-06-17,-5.0
2002-06-18,-16.0
2002-06-19,-18.0
2002-06-20,-11.0
2002-06-21,-12.0
2002-06-22,-16.0
2002-06-23,-11.0
2002-06-24,-12.0
2002-06-25,-8.0
2002-06-26,-8.0
2002-06-27,-6.0
2002-06-28,-10.0
2002-06-29,-11.0
2002-06-30,1.0
2002-07-01,0.0
2002-07-02,-6.0
2002-07-03,-5.0
2002-07-04,0.0
2002-07-05,0.0
2002-07-06,0.0
2002-07-07,-21.0
2002-07-08,-53.0
2002-07-09,-72.0
2002-07-10,-72.0
2002-07-11,-76.0
2002-07-12,-68.0
2002-07-13,-76.0
2002-07-14,-80.0
2002-07-15,-80.0
2002-07-16,-80.0
2002-07-17,-78.0
2002-07-18,-25.0
2002-07-19,-2.0
2002-07-20,-4.0
2002-07-21,-3.0
2002-07-22,3.0
2002-07-23,7.0
2002-07-24,9.0
2002-07-25,6.0
2002-07-26,-4.0
2002-07-27,-3.0
2002-07-28,-6.0
2002-07-29,-8.0
2002-07-30,-7.0
2002-07-31,-6.0
2002-08-01,-6.0
2002-08-02,-1.0
2002-08-03,0.0
2002-08-04,1.0
2002-08-05,-3.0
2002-08-06,-4.0
2002-08-07,-1.0
2002-08-08,1.0
2002-08-09,-3.0
2002-08-10,-6.0
2002-08-11,-6.0
2002-08-12,-8.0
2002-08-13,-6.0
2002-08-14,-3.0
2002-08-15,-7.0
2002-08-16,-6.0
2002-08-17,-3.0
2002-08-18,-3.0
2002-08-19,-1.0
2002-08-20,-3.0
2002-08-21,0.0
2002-08-22,-3.0
2002-08-23,-3.0
2002-08-24,-3.0
2002-08-25,-6.0
2002-08-26,-1.0
2002-08-27,0.0
2002-08-28,-5.0
2002-08-29,2.0
2002-08-30,0.0
2002-08-31,-2.0
2002-09-01,-1.0
2002-09-02,-3.0
2002-09-03,-1.0
2002-09-04,-2.0
2002-09-05,-3.0
2002-09-06,0.0
2002-09-07,22.0
2002-09-08,32.0
2002-09-09,16.0
2002-09-10,16.0
2002-09-11,232.0
2002-09-12,148.0
2002-09-13,132.0
2002-09-14,85.0
2002-09-15,71.0
2002-09-16,59.0
2002-09-17,49.0
2002-09-18,50.0
2002-09-19,41.0
2002-09-20,37.0
2002-09-21,31.0
2002-09-22,28.0
2002-09-23,24.0
2002-09-24,23.0
2002-09-25,23.0
2002-09-26,22.0
2002-09-27,24.0
2002-09-28,32.0
2002-09-29,39.0
2002-09-30,35.0
2002-10-01,0.0
2002-10-02,48.0
2002-10-03,61.0
2002-10-04,55.0
2002-10-05,54.0
2002-10-06,58.0
2002-10-07,63.0
2002-10-08,74.0
2002-10-09,83.0
2002-10-10,79.0
2002-10-11,75.0
2002-10-12,69.0
2002-10-13,67.0
2002-10-14,61.0
2002-10-15,55.0
2002-10-16,51.0
2002-10-17,41.0
2002-10-18,42.0
2002-10-19,38.0
2002-10-20,68.0
2002-10-21,31.0
2002-10-22,37.0
2002-10-23,38.0
2002-10-24,37.0
2002-10-25,-24.0
2002-10-26,-82.0
2002-10-27,-103.0
2002-10-28,-103.0
2002-10-29,-105.0
2002-10-30,-103.0
2002-10-31,-106.0
2002-11-01,-105.0
2002-11-02,-104.0
2002-11-03,22.0
2002-11-04,26.0
2002-11-05,21.0
2002-11-06,23.0
2002-11-07,24.0
2002-11-08,44.0
2002-11-09,35.0
2002-11-10,23.0
2002-11-11,21.0
2002-11-12,23.0
2002-11-13,24.0
2002-11-14,20.0
2002-11-15,16.0
2002-11-16,19.0
2002-11-17,22.0
2002-11-18,16.0
2002-11-19,20.0
2002-11-20,19.0
2002-11-21,22.0
2002-11-22,18.0
2002-11-23,19.0
2002-11-24,22.0
2002-11-25,14.0
2002-11-26,19.0
2002-11-27,16.0
2002-11-28,16.0
2002-11-29,17.0
2002-11-30,21.0
2002-12-01,15.0
2002-12-02,16.0
2002-12-03,17.0
2002-12-04,13.0
2002-12-05,9.0
2002-12-06,13.0
2002-12-07,11.0
2002-12-08,9.0
2002-12-09,9.0
2002-12-10,9.0
2002-12-11,7.0
2002-12-12,8.0
2002-12-13,9.0
2002-12-14,7.0
2002-12-15,8.0
2002-12-16,14.0
2002-12-17,11.0
2002-12-18,4.0
2002-12-19,6.0
2002-12-20,7.0
2002-12-21,7.0
2002-12-22,6.0
2002-12-23,9.0
2002-12-24,8.0
2002-12-25,5.0
2002-12-26,4.0
2002-12-27,5.0
2002-12-28,8.0
2002-12-29,7.0
2002-12-30,2.0
2002-12-31,6.0
2003-01-01,3.0
2003-01-02,4.0
2003-01-03,4.0
2003-01-04,3.0
2003-01-05,6.0
2003-01-06,2.0
2003-01-07,2.0
2003-01-08,3.0
2003-01-09,4.0
2003-01-10,4.0
2003-01-11,6.0
2003-01-12,1.0
2003-01-13,2.0
2003-01-14,4.0
2003-01-15,2.0
2003-01-16,2.0
2003-01-17,2.0
2003-01-18,1.0
2003-01-19,2.0
2003-01-20,4.0
2003-01-21,2.0
2003-01-22,2.0
2003-01-23,2.0
2003-01-24,1.0
2003-01-25,2.0
2003-01-26,2.0
2003-01-27,2.0
2003-01-28,2.0
2003-01-29,0.0
2003-01-30,2.0
2003-01-31,4.0
2003-02-01,3.0
2003-02-02,2.0
2003-02-03,0.0
2003-02-04,0.0
2003-02-05,2.0
2003-02-06,0.0
2003-02-07,0.0
2003-02-08,0.0
2003-02-09,0.0
2003-02-10,0.0
2003-02-11,0.0
2003-02-12,11.0
2003-02-13,17.0
2003-02-14,2.0
2003-02-15,0.0
2003-02-16,0.0
2003-02-17,4.0
2003-02-18,0.0
2003-02-19,0.0
2003-02-20,0.0
2003-02-21,0.0
2003-02-22,0.0
2003-02-23,0.0
2003-02-24,7.0
2003-02-25,13.0
2003-02-26,8.0
2003-02-27,5.0
2003-02-28,4.0
2003-03-01,0.0
2003-03-02,0.0
2003-03-03,0.0
2003-03-04,8.0
2003-03-05,0.0
2003-03-06,0.0
2003-03-07,0.0
2003-03-08,2.0
2003-03-09,1.0
2003-03-10,4.0
2003-03-11,8.0
2003-03-12,15.0
2003-03-13,19.0
2003-03-14,17.0
2003-03-15,20.0
2003-03-16,29.0
2003-03-17,17.0
2003-03-18,15.0
2003-03-19,11.0
2003-03-20,15.0
2003-03-21,12.0
2003-03-22,13.0
2003-03-23,25.0
2003-03-24,25.0
2003-03-25,25.0
2003-03-26,27.0
2003-03-27,19.0
2003-03-28,15.0
2003-03-29,21.0
2003-03-30,25.0
2003-03-31,33.0
2003-04-01,37.0
2003-04-02,31.0
2003-04-03,30.0
2003-04-04,27.0
2003-04-05,29.0
2003-04-06,24.0
2003-04-07,21.0
2003-04-08,28.0
2003-04-09,34.0
2003-04-10,45.0
2003-04-11,56.0
2003-04-12,68.0
2003-04-13,84.0
2003-04-14,110.0
2003-04-15,124.0
2003-04-16,126.0
2003-04-17,119.0
2003-04-18,110.0
2003-04-19,107.0
2003-04-20,77.0
2003-04-21,87.0
2003-04-22,95.0
2003-04-23,73.0
2003-04-24,60.0
2003-04-25,131.0
2003-04-26,169.0
2003-04-27,238.0
2003-04-28,266.0
2003-04-29,260.0
2003-04-30,164.0
2003-05-01,368.0
2003-05-02,263.0
2003-05-03,283.0
2003-05-04,262.0
2003-05-05,216.0
2003-05-06,194.0
2003-05-07,177.0
2003-05-08,162.0
2003-05-09,141.0
2003-05-10,130.0
2003-05-11,161.0
2003-05-12,228.0
2003-05-13,225.0
2003-05-14,286.0
2003-05-15,254.0
2003-05-16,318.0
2003-05-17,468.0
2003-05-18,372.0
2003-05-19,347.0
2003-05-20,455.0
2003-05-21,609.0
2003-05-22,769.0
2003-05-23,553.0
2003-05-24,445.0
2003-05-25,278.0
2003-05-26,463.0
2003-05-27,637.0
2003-05-28,549.0
2003-05-29,380.0
2003-05-30,259.0
2003-05-31,181.0
2003-06-01,178.0
2003-06-02,119.0
2003-06-03,0.0
2003-06-04,0.0
2003-06-05,-72.0
2003-06-06,-132.0
2003-06-07,-433.0
2003-06-08,-250.0
2003-06-09,-251.0
2003-06-10,-265.0
2003-06-11,-255.0
2003-06-12,-285.0
2003-06-13,-277.0
2003-06-14,-274.0
2003-06-15,-280.0
2003-06-16,-293.0
2003-06-17,-308.0
2003-06-18,-290.0
2003-06-19,-250.0
2003-06-20,-252.0
2003-06-21,-259.0
2003-06-22,-271.0
2003-06-23,-285.0
2003-06-24,-302.0
2003-06-25,-308.0
2003-06-26,-310.0
2003-06-27,-307.0
2003-06-28,-311.0
2003-06-29,-319.0
2003-06-30,-176.0
2003-07-01,-462.0
2003-07-02,-321.0
2003-07-03,-318.0
2003-07-04,-320.0
2003-07-05,-324.0
2003-07-06,-320.0
2003-07-07,-328.0
2003-07-08,-334.0
2003-07-09,-355.0
2003-07-10,-373.0
2003-07-11,-397.0
2003-07-12,-389.0
2003-07-13,-379.0
2003-07-14,-361.0
2003-07-15,-352.0
2003-07-16,-363.0
2003-07-17,-363.0
2003-07-18,-340.0
2003-07-19,-315.0
2003-07-20,-308.0
2003-07-21,-303.0
2003-07-22,-297.0
2003-07-23,-289.0
2003-07-24,-284.0
2003-07-25,-283.0
2003-07-26,-281.0
2003-07-27,-275.0
2003-07-28,-261.0
2003-07-29,-197.0
2003-07-30,-201.0
2003-07-31,-200.0
2003-08-01,-204.0
2003-08-02,-89.0
2003-08-03,-34.0
2003-08-04,23.0
2003-08-05,31.0
2003-08-06,25.0
2003-08-07,26.0
2003-08-08,53.0
2003-08-09,44.0
2003-08-10,37.0
2003-08-11,36.0
2003-08-12,29.0
2003-08-13,45.0
2003-08-14,63.0
2003-08-15,48.0
2003-08-16,67.0
2003-08-17,58.0
2003-08-18,53.0
2003-08-19,52.0
2003-08-20,44.0
2003-08-21,41.0
2003-08-22,34.0
2003-08-23,38.0
2003-08-24,84.0
2003-08-25,105.0
2003-08-26,69.0
2003-08-27,77.0
2003-08-28,103.0
2003-08-29,94.0
2003-08-30,185.0
2003-08-31,133.0
2003-09-01,94.0
2003-09-02,84.0
2003-09-03,76.0
2003-09-04,68.0
2003-09-05,71.0
2003-09-06,81.0
2003-09-07,71.0
2003-09-08,62.0
2003-09-09,375.0
2003-09-10,454.0
2003-09-11,339.0
2003-09-12,371.0
2003-09-13,360.0
2003-09-14,280.0
2003-09-15,232.0
2003-09-16,185.0
2003-09-17,152.0
2003-09-18,129.0
2003-09-19,107.0
2003-09-20,97.0
2003-09-21,82.0
2003-09-22,73.0
2003-09-23,65.0
2003-09-24,58.0
2003-09-25,51.0
2003-09-26,45.0
2003-09-27,42.0
2003-09-28,40.0
2003-09-29,35.0
2003-09-30,31.0
2003-10-01,34.0
2003-10-02,50.0
2003-10-03,59.0
2003-10-04,56.0
2003-10-05,48.0
2003-10-06,46.0
2003-10-07,43.0
2003-10-08,39.0
2003-10-09,34.0
2003-10-10,44.0
2003-10-11,30.0
2003-10-12,32.0
2003-10-13,24.0
2003-10-14,25.0
2003-10-15,25.0
2003-10-16,22.0
2003-10-17,22.0
2003-10-18,20.0
2003-10-19,17.0
2003-10-20,20.0
2003-10-21,13.0
2003-10-22,12.0
2003-10-23,15.0
2003-10-24,12.0
2003-10-25,20.0
2003-10-26,10.0
2003-10-27,13.0
2003-10-28,10.0
2003-10-29,7.0
2003-10-30,10.0
2003-10-31,-17.0
2003-11-01,-10.0
2003-11-02,-75.0
2003-11-03,-104.0
2003-11-04,-111.0
2003-11-05,-110.0
2003-11-06,-107.0
2003-11-07,-106.0
2003-11-08,-110.0
2003-11-09,-19.0
2003-11-10,17.0
2003-11-11,16.0
2003-11-12,36.0
2003-11-13,36.0
2003-11-14,10.0
2003-11-15,16.0
2003-11-16,17.0
2003-11-17,17.0
2003-11-18,7.0
2003-11-19,17.0
2003-11-20,15.0
2003-11-21,14.0
2003-11-22,5.0
2003-11-23,2.0
2003-11-24,15.0
2003-11-25,14.0
2003-11-26,8.0
2003-11-27,5.0
2003-11-28,9.0
2003-11-29,12.0
2003-11-30,10.0
2003-12-01,10.0
2003-12-02,7.0
2003-12-03,7.0
2003-12-04,10.0
2003-12-05,7.0
2003-12-06,10.0
2003-12-07,12.0
2003-12-08,18.0
2003-12-09,2.0
2003-12-10,5.0
2003-12-11,10.0
2003-12-12,2.0
2003-12-13,7.0
2003-12-14,15.0
2003-12-15,0.0
2003-12-16,5.0
2003-12-17,10.0
2003-12-18,7.0
2003-12-19,5.0
2003-12-20,10.0
2003-12-21,12.0
2003-12-22,3.0
2003-12-23,5.0
2003-12-24,4.0
2003-12-25,18.0
2003-12-26,9.0
2003-12-27,3.0
2003-12-28,5.0
2003-12-29,7.0
2003-12-30,8.0
2003-12-31,7.0
2004-01-01,22.0
2004-01-02,33.0
2004-01-03,14.0
2004-01-04,5.0
2004-01-05,5.0
2004-01-06,5.0
2004-01-07,5.0
2004-01-08,5.0
2004-01-09,5.0
2004-01-10,5.0
2004-01-11,3.0
2004-01-12,2.0
2004-01-13,3.0
2004-01-14,5.0
2004-01-15,5.0
2004-01-16,2.0
2004-01-17,3.0
2004-01-18,5.0
2004-01-19,4.0
2004-01-20,8.0
2004-01-21,2.0
2004-01-22,0.0
2004-01-23,3.0
2004-01-24,5.0
2004-01-25,2.0
2004-01-26,3.0
2004-01-27,2.0
2004-01-28,3.0
2004-01-29,0.0
2004-01-30,2.0
2004-01-31,10.0
2004-02-01,3.0
2004-02-02,5.0
2004-02-03,12.0
2004-02-04,3.0
2004-02-05,2.0
2004-02-06,3.0
2004-02-07,2.0
2004-02-08,3.0
2004-02-09,0.0
2004-02-10,0.0
2004-02-11,2.0
2004-02-12,0.0
2004-02-13,0.0
2004-02-14,-2.0
2004-02-15,0.0
2004-02-16,2.0
2004-02-17,0.0
2004-02-18,0.0
2004-02-19,3.0
2004-02-20,2.0
2004-02-21,10.0
2004-02-22,3.0
2004-02-23,10.0
2004-02-24,2.0
2004-02-25,0.0
2004-02-26,3.0
2004-02-27,22.0
2004-02-28,8.0
2004-02-29,0.0
2004-03-01,3.0
2004-03-02,12.0
2004-03-03,3.0
2004-03-04,0.0
2004-03-05,0.0
2004-03-06,2.0
2004-03-07,5.0
2004-03-08,0.0
2004-03-09,28.0
2004-03-10,23.0
2004-03-11,27.0
2004-03-12,41.0
2004-03-13,38.0
2004-03-14,43.0
2004-03-15,46.0
2004-03-16,54.0
2004-03-17,54.0
2004-03-18,75.0
2004-03-19,91.0
2004-03-20,123.0
2004-03-21,155.0
2004-03-22,177.0
2004-03-23,184.0
2004-03-24,200.0
2004-03-25,220.0
2004-03-26,230.0
2004-03-27,205.0
2004-03-28,173.0
2004-03-29,163.0
2004-03-30,158.0
2004-03-31,171.0
2004-04-01,201.0
2004-04-02,237.0
2004-04-03,238.0
2004-04-04,206.0
2004-04-05,204.0
2004-04-06,192.0
2004-04-07,196.0
2004-04-08,185.0
2004-04-09,178.0
2004-04-10,169.0
2004-04-11,160.0
2004-04-12,145.0
2004-04-13,146.0
2004-04-14,161.0
2004-04-15,165.0
2004-04-16,189.0
2004-04-17,197.0
2004-04-18,206.0
2004-04-19,198.0
2004-04-20,180.0
2004-04-21,179.0
2004-04-22,183.0
2004-04-23,154.0
2004-04-24,148.0
2004-04-25,140.0
2004-04-26,153.0
2004-04-27,196.0
2004-04-28,267.0
2004-04-29,278.0
2004-04-30,244.0
2004-05-01,239.0
2004-05-02,245.0
2004-05-03,329.0
2004-05-04,453.0
2004-05-05,600.0
2004-05-06,790.0
2004-05-07,985.0
2004-05-08,1041.0
2004-05-09,1047.0
2004-05-10,1058.0
2004-05-11,936.0
2004-05-12,752.0
2004-05-13,432.0
2004-05-14,52.0
2004-05-15,458.0
2004-05-16,562.0
2004-05-17,595.0
2004-05-18,724.0
2004-05-19,853.0
2004-05-20,731.0
2004-05-21,538.0
2004-05-22,346.0
2004-05-23,353.0
2004-05-24,270.0
2004-05-25,327.0
2004-05-26,391.0
2004-05-27,502.0
2004-05-28,597.0
2004-05-29,294.0
2004-05-30,105.0
2004-05-31,104.0
2004-06-01,122.0
2004-06-02,192.0
2004-06-03,263.0
2004-06-04,346.0
2004-06-05,424.0
2004-06-06,450.0
2004-06-07,441.0
2004-06-08,349.0
2004-06-09,223.0
2004-06-10,72.0
2004-06-11,-6.0
2004-06-12,-78.0
2004-06-13,-67.0
2004-06-14,-60.0
2004-06-15,-84.0
2004-06-16,-103.0
2004-06-17,-138.0
2004-06-18,-137.0
2004-06-19,-144.0
2004-06-20,-178.0
2004-06-21,-226.0
2004-06-22,-237.0
2004-06-23,-213.0
2004-06-24,-235.0
2004-06-25,-247.0
2004-06-26,-240.0
2004-06-27,-239.0
2004-06-28,-58.0
2004-06-29,-76.0
2004-06-30,-134.0
2004-07-01,-162.0
2004-07-02,-190.0
2004-07-03,-208.0
2004-07-04,-218.0
2004-07-05,-247.0
2004-07-06,-314.0
2004-07-07,-319.0
2004-07-08,-328.0
2004-07-09,-334.0
2004-07-10,-337.0
2004-07-11,-335.0
2004-07-12,-363.0
2004-07-13,-371.0
2004-07-14,-375.0
2004-07-15,-363.0
2004-07-16,-360.0
2004-07-17,-364.0
2004-07-18,-367.0
2004-07-19,-338.0
2004-07-20,-331.0
2004-07-21,-340.0
2004-07-22,-190.0
2004-07-23,-290.0
2004-07-24,-314.0
2004-07-25,-343.0
2004-07-26,-351.0
2004-07-27,-348.0
2004-07-28,-325.0
2004-07-29,-293.0
2004-07-30,-291.0
2004-07-31,-298.0
2004-08-01,-262.0
2004-08-02,-344.0
2004-08-03,-335.0
2004-08-04,-342.0
2004-08-05,-325.0
2004-08-06,-336.0
2004-08-07,-337.0
2004-08-08,-311.0
2004-08-09,-326.0
2004-08-10,-354.0
2004-08-11,-359.0
2004-08-12,-364.0
2004-08-13,-355.0
2004-08-14,-347.0
2004-08-15,-330.0
2004-08-16,-314.0
2004-08-17,-331.0
2004-08-18,-316.0
2004-08-19,-324.0
2004-08-20,-332.0
2004-08-21,-313.0
2004-08-22,-308.0
2004-08-23,-337.0
2004-08-24,-294.0
2004-08-25,-333.0
2004-08-26,-277.0
2004-08-27,-319.0
2004-08-28,-315.0
2004-08-29,-318.0
2004-08-30,-224.0
2004-08-31,-338.0